Lincoln, NE

6:46 AM CST on December 07, 2016 (GMT -0600)
Lincoln Municipal

Weather History for KLNK - December, 2000

Change the Weather History Date:

Sunday, December 31, 2000

  Actual Average Record
Temperature  
Mean Temperature 5 °F 25 °F  
Max Temperature 12 °F 35 °F 59 °F (1891)
Min Temperature -4 °F 14 °F -20 °F (1973)
Degree Days  
Heating Degree Days 60 40  
Month to date heating degree days 1183  
Since 1 July heating degree days 2445  
Cooling Degree Days 0 0  
Month to date cooling degree days 0  
Year to date cooling degree days 1173  
Moisture  
Dew Point -1 °F    
Average Humidity 75    
Maximum Humidity 85    
Minimum Humidity 61    
Precipitation  
Precipitation 0.00 in 0.02 in 1.16 in (1931)
Month to date precipitation 0.95  
Year to date precipitation 28.95  
Snow  
Snow 0.00 in 0.20 in - ()
Month to date snowfall 5.9  
Since 1 July snowfall 8.7  
Snow Depth 10.00 in    
Sea Level Pressure  
Sea Level Pressure 30.48 in    
Wind  
Wind Speed 7 mph (NNW)    
Max Wind Speed 13 mph    
Max Gust Speed -    
Visibility 10 miles    
Events      
T = Trace of Precipitation, MM = Missing Value Source: NWS Daily Summary

Daily Weather History Graph

Daily Weather History Graph

Search for Another Location

Airport or City:

Trip Planner

Search our weather history database for the weather conditions in past years. The results will help you decide how hot, cold, wet, or windy it might be!

Date:

Astronomy

Dec. 31, 2000 Rise Set
Actual Time 7:51 AM CST 5:09 PM CST
Civil Twilight 7:20 AM CST 5:40 PM CST
Nautical Twilight 6:46 AM CST 6:14 PM CST
Astronomical Twilight 6:12 AM CST 6:48 PM CST
Moon 11:34 AM CST (12/31) 10:49 PM CST (12/31)
Length of Visible Light 10h 19m
Length of Day
9h 17m
Waxing Crescent, 29% of the Moon is Illuminated
Dec 31
Waxing Crescent
Jan 2
First Quarter
Jan 9
Full
Jan 16
Last Quarter
Jan 24
New

Hourly Weather History & Observations

Time (CST) Temp. Windchill Dew Point Humidity Pressure Visibility Wind Dir Wind Speed Gust Speed Precip Events Conditions
12:54 AM 3.9 °F -8.2 °F -0.0 °F 84% 30.47 in 10.0 mi WNW 6.9 mph - N/A   Clear
1:54 AM 3.9 °F -11.3 °F -0.0 °F 84% 30.47 in 10.0 mi NW 10.4 mph - N/A   Clear
2:54 AM 3.9 °F -9.4 °F -0.9 °F 80% 30.48 in 10.0 mi NW 8.1 mph - N/A   Clear
3:54 AM 1.9 °F -10.6 °F -2.0 °F 83% 30.49 in 10.0 mi NW 6.9 mph - N/A   Clear
4:54 AM 1.0 °F -8.7 °F -2.9 °F 83% 30.48 in 10.0 mi NW 4.6 mph - N/A   Clear
5:54 AM -2.0 °F -13.9 °F -6.0 °F 83% 30.50 in 10.0 mi NNE 5.8 mph - N/A   Clear
6:54 AM -2.0 °F -12.2 °F -7.1 °F 79% 30.50 in 10.0 mi NNW 4.6 mph - N/A   Clear
7:18 AM 1.4 °F -9.9 °F -2.2 °F 85% 30.42 in 10.0 mi NW 5.8 mph - N/A   Mostly Cloudy
7:54 AM 1.9 °F -7.6 °F -2.9 °F 80% 30.50 in 10.0 mi NNW 4.6 mph - N/A   Overcast
8:54 AM 3.9 °F -3.4 °F -0.9 °F 80% 30.49 in 10.0 mi NW 3.5 mph - N/A   Overcast
9:07 AM 3.2 °F -6.2 °F -0.4 °F 85% 30.41 in 10.0 mi NNW 4.6 mph - N/A   Overcast
9:54 AM 7.0 °F -1.7 °F 1.0 °F 77% 30.50 in 10.0 mi North 4.6 mph - N/A   Mostly Cloudy
10:54 AM 9.0 °F -4.2 °F 1.0 °F 70% 30.51 in 10.0 mi North 9.2 mph - N/A   Overcast
11:54 AM 10.9 °F -4.1 °F -0.0 °F 61% 30.49 in 10.0 mi NNW 12.7 mph - N/A   Mostly Cloudy
12:54 PM 10.9 °F -1.8 °F -0.0 °F 61% 30.47 in 10.0 mi North 9.2 mph - N/A   Mostly Cloudy
1:54 PM 12.0 °F -2.0 °F 1.0 °F 61% 30.45 in 10.0 mi North 11.5 mph - N/A   Overcast
2:54 PM 12.0 °F -2.7 °F 1.9 °F 64% 30.45 in 10.0 mi North 12.7 mph - 0.00 in   Overcast
3:54 PM 10.9 °F -2.6 °F 1.9 °F 67% 30.45 in 10.0 mi North 10.4 mph - 0.00 in   Overcast
4:54 PM 10.9 °F -0.8 °F 1.9 °F 67% 30.45 in 10.0 mi North 8.1 mph - N/A   Overcast
5:54 PM 10.0 °F -1.9 °F 1.9 °F 70% 30.46 in 10.0 mi NNW 8.1 mph - N/A   Overcast
6:54 PM 10.0 °F -0.9 °F 1.9 °F 70% 30.48 in 10.0 mi North 6.9 mph - 0.00 in   Overcast
7:54 PM 6.1 °F -4.3 °F -0.0 °F 76% 30.48 in 10.0 mi NNW 5.8 mph - N/A   Overcast
8:54 PM 3.9 °F -5.3 °F -4.0 °F 70% 30.49 in 10.0 mi NNW 4.6 mph - N/A   Partly Cloudy
9:54 PM 1.0 °F -6.7 °F -5.1 °F 75% 30.50 in 10.0 mi NNW 3.5 mph - N/A   Clear
10:54 PM -0.0 °F -9.9 °F -6.0 °F 76% 30.51 in 10.0 mi NNW 4.6 mph - N/A   Clear
11:54 PM -4.0 °F -16.3 °F -8.0 °F 83% 30.53 in 10.0 mi NW 5.8 mph - N/A   Clear